• MPC Preparation (Info)

  • MPEC 2024-G75 : 2024 FR5

    The following Minor Planet Electronic Circular may be linked-to from your own Web pages, but must not otherwise be redistributed electronically.

    A form allowing access to any MPEC is at the bottom of this page.


    Read MPEC 2024-G74 Read MPEC 2024-G76


    M.P.E.C. 2024-G75                                 Issued 2024 April 6, 02:37 UT
    
         The Minor Planet Electronic Circulars contain information on unusual
             minor planets, routine data on comets and natural satellites,
             and occasional editorial announcements.  They are published
        on behalf of Division F of the International Astronomical Union by the
              Minor Planet Center, Smithsonian Astrophysical Observatory,
                              Cambridge, MA 02138, U.S.A.
    			  
                 Prepared using the Tamkin Foundation Computer Network
    
                                  MPC@CFA.HARVARD.EDU
                URL https://www.minorplanetcenter.net/    ISSN 1523-6714
    
                                    2024 FR5                                 
    
    
    Observations:
         K24F05R*KC2024 03 31.14122 11 09 07.795+22 50 48.37         20.8 GVEG075W16
         K24F05R KC2024 03 31.14866 11 09 07.363+22 50 59.35         20.5 GVEG075W16
         K24F05R KC2024 03 31.15611 11 09 06.780+22 51 08.75         19.9 GVEG075W16
         K24F05R KC2024 03 31.16353 11 09 06.216+22 51 19.08         20.7 GVEG075W16
         K24F05R KC2024 04 04.19931 11 06 36.106+24 24 33.55         20.4 GVEG075W16
         K24F05R KC2024 04 04.21426 11 06 35.088+24 24 54.61         20.3 GVEG075W16
         K24F05R KC2024 04 04.22897 11 06 34.085+24 25 14.74         20.4 GVEG075W16
         K24F05R KC2024 04 04.24307 11 06 33.156+24 25 34.10         20.3 GVEG075W16
         K24F05R 1C2024 04 05.24151111 06 02.077+24 50 09.10         21.00GVEG075G96
         K24F05R 1C2024 04 05.24665611 06 01.663+24 50 16.80         20.02GVEG075G96
         K24F05R 1C2024 04 05.25178411 06 01.336+24 50 24.00         20.84GVEG075G96
         K24F05R 1C2024 04 05.25692811 06 01.030+24 50 31.92         20.37GVEG075G96
         K24F05R KC2024 04 05.82572311 05 45.59 +25 04 23.5          20.8 GVEG075L01
         K24F05R KC2024 04 05.82824411 05 45.39 +25 04 27.5          20.7 GVEG075L01
         K24F05R KC2024 04 05.83076611 05 45.25 +25 04 31.9          20.7 GVEG075L01
         K24F05R KC2024 04 05.92071 11 05 39.89 +25 06 51.5          20.5 GVEG075104
         K24F05R KC2024 04 05.95007 11 05 38.02 +25 07 33.6                VEG075104
         K24F05R KC2024 04 06.07428911 05 39.05 +25 10 47.9          20.8 GVEG075H21
         K24F05R KC2024 04 06.08127111 05 38.63 +25 10 59.2          20.8 GVEG075H21
         K24F05R KC2024 04 06.08825311 05 38.18 +25 11 10.3          20.7 GVEG075H21
         K24F05R KC2024 04 06.09034811 05 38.08 +25 11 13.7          20.9 GVEG075H21
    
    Observer details:
    104 San Marcello Pistoiese.  Observers P. Bacci, M. Maestripieri, G.
        Bartolomei.  Measurer P. Bacci.  0.60-m f/4 reflector + CCD.
    G96 Mt. Lemmon Survey.  Observer G. J. Leonard.  Measurers T. Beuden, V. F.
        Carvajal, D. Fay, J. B. Fazekas, D. C. Fuls, A. R. Gibbs, A. D. Grauer, H.
        Groeller, J. K. Hogan, R. A. Kowalski, S. M. Larson, G. J. Leonard, D.
        Rankin, R. L. Seaman, F. C. Shelly, K. W. Wierzchos.  1.5-m reflector +
        10K CCD.
    H21 Astronomical Research Observatory, Westfield.  Observer R. Holmes.
        Measurers T. Linder, R. Holmes, L. Horn.  0.76-m f/3.0 astrograph + CCD.
    L01 Visnjan Observatory, Tican.  Observer K. Korlevic.  1.0-m f/2.9 reflector
        + CCD.
    W16 Pleasant Groves Observatory.  Observer M. Holbrook.  0.36-m f/2.2
        reflector + CCD.
    
    Orbital elements:
    2024 FR5                                                 Earth MOID = 0.0021 AU
    Epoch 2024 Mar. 31.0 TT = JDT 2460400.5                 MPC                     
    M 336.55497              (2000.0)            P               Q                  
    n   0.53305283     Peri.  166.19446     -0.57721868     +0.81607381             
    a   1.5064540      Node    68.54281     -0.75213490     -0.51748376             
    e   0.3347815      Incl.    1.78681     -0.31798065     -0.25735984             
    P   1.85           H   24.33          G   0.15           U   8                  
    Residuals in seconds of arc
    240331 W16  0.0   0.1-    240404 W16  0.0   0.0     240405 L01  0.2-  0.1+
    240331 W16 (1.1+  0.7+)   240405 G96  0.0   0.4-    240405 104  0.7+  0.3+
    240331 W16  0.2+  0.1-    240405 G96  0.8-  0.3-    240405 104  0.4+  0.7-
    240331 W16  0.5-  0.3+    240405 G96  0.4-  0.6-    240406 H21  0.0   0.3+
    240404 W16  0.0   0.1+    240405 G96  0.4+  0.2-    240406 H21  0.1+  0.2+
    240404 W16  0.1+  0.2+    240405 L01  0.2+  0.4-    240406 H21  0.2-  0.1-
    240404 W16  0.1-  0.1-    240405 L01  0.4-  0.3-    240406 H21  0.2+  0.0
    
    Ephemeris:
    2024 FR5                 a,e,i = 1.51, 0.33, 2                   q = 1.0021
    Date    TT    R. A. (2000) Decl.     Delta      r    Elong.  Phase     V
    2024 03 07    11 24 18.5 +15 19 57   0.2008  1.1903   169.4     8.8    21.8
    ...
    2024 03 22    11 15 22.6 +19 42 16   0.1385  1.1245   156.3    20.9    21.3
    ...
    2024 03 30    11 09 51.6 +22 26 03   0.1112  1.0932   146.6    30.2    21.1
    ...
    2024 04 05    11 06 10.4 +24 44 22   0.09240 1.0720   139.1    37.6    20.8
    2024 04 06    11 05 38.3 +25 09 23   0.08938 1.0687   137.9    38.9    20.8
    2024 04 07    11 05 08.2 +25 35 07   0.08638 1.0654   136.6    40.2    20.7
    ...
    2024 04 13    11 03 04.1 +28 31 07   0.06878 1.0474   129.0    48.1    20.4
    ...
    2024 04 21    11 04 34.5 +34 34 34   0.04594 1.0275   118.4    59.4    19.8
    ...
    2024 05 06    21 10 35.5 +66 59 52   0.01265 1.0052    73.1   106.2    18.8
    
    A. U. Tomatic                (C) Copyright 2024 MPC           M.P.E.C. 2024-G75
    


    Read MPEC 2024-G74 Read MPEC 2024-G76


    MPEC number:

    Enter an MPEC number in one of the following forms:

    • 1997-B01 (the full form)
    • J97B01 (the packed version of the full form)
    • B01 (the abbreviated form)